Location: Helsinki
(60.1699°N, 24.9384°E)
Time: 00:53:11
(UTC+02:00)

Vanguard 2 Rocket - Pass Details

Date: 27 September 2023
Orbit: 553 x 3312 km, 32.9° (Epoch: 29 November)

Event Time Altitude Azimuth Distance (km) Brightness Sun altitude
Rises 11:24:12 0° 196° (SSW) 6,582 11.9 24.8°
Reaches altitude 10° 11:30:43 10° 180° (S) 5,936 12.2 25.2°
Maximum altitude 11:41:04 18° 147° (SSE) 5,595 13.2 25.8°
Drops below altitude 10° 11:51:46 10° 114° (ESE) 6,190 11.9 26.3°
Sets 11:58:45 0° 98° (E) 6,975 11.8 26.6°
